| time (UTC) | temp F | wind direction | speed knots | gust knots | rain 1hr in | rain 24hr in | rain mn in | humidity % | barometer mb |
| 20260901141018 | 91 | 183 | 0.0 | 2.6 | 0.00 | 0.00 | 0.00 | 63 | 1018.0 |
| 20260901140512 | 91 | 181 | 0.0 | 2.6 | 0.00 | 0.00 | 0.00 | 63 | 1017.9 |
| 20260901140030 | 91 | 191 | 0.0 | 0.9 | 0.00 | 0.00 | 0.00 | 64 | 1018.0 |
| 20260901135516 | 90 | 191 | 0.0 | 3.5 | 0.00 | 0.00 | 0.00 | 64 | 1018.0 |
| 20260901135014 | 90 | 190 | 0.0 | 3.5 | 0.00 | 0.00 | 0.00 | 65 | 1018.1 |
| 20260901134531 | 89 | 198 | 0.0 | 0.9 | 0.00 | 0.00 | 0.00 | 65 | 1018.2 |
| 20260901134015 | 89 | 198 | 0.0 | 1.7 | 0.00 | 0.00 | 0.00 | 66 | 1018.1 |
| 20260901133515 | 88 | 195 | 0.0 | 1.7 | 0.00 | 0.00 | 0.00 | 67 | 1018.1 |
| 20260901133038 | 87 | 193 | 0.0 | 0.9 | 0.00 | 0.00 | 0.00 | 69 | 1018.1 |
| 20260901132508 | 87 | 193 | 0.0 | 0.9 | 0.00 | 0.00 | 0.00 | 69 | 1018.1 |
| 20260901132013 | 86 | 190 | 0.0 | 0.9 | 0.00 | 0.00 | 0.00 | 71 | 1018.1 |
| 20260901131525 | 85 | 190 | 0.0 | 2.6 | 0.00 | 0.00 | 0.00 | 72 | 1018.1 |
| 20260901131014 | 85 | 190 | 0.0 | 2.6 | 0.00 | 0.00 | 0.00 | 73 | 1018.0 |
| 20260901130506 | 84 | 190 | 0.0 | 2.6 | 0.00 | 0.00 | 0.00 | 74 | 1018.0 |
| 20260901130007 | 83 | 198 | 0.0 | 2.6 | 0.00 | 0.00 | 0.00 | 75 | 1018.0 |
| 20260901125503 | 83 | 204 | 0.0 | 1.7 | 0.00 | 0.00 | 0.00 | 76 | 1017.8 |
| 20260901125003 | 82 | 204 | 0.0 | 1.7 | 0.00 | 0.00 | 0.00 | 77 | 1017.7 |
| 20260901124507 | 81 | 204 | 0.0 | 1.7 | 0.00 | 0.00 | 0.00 | 77 | 1017.7 |
| 20260901124003 | 81 | 205 | 0.0 | 1.7 | 0.00 | 0.00 | 0.00 | 78 | 1017.6 |
| 20260901123506 | 80 | 205 | 0.0 | 1.7 | 0.00 | 0.00 | 0.00 | 78 | 1017.5 |
| 20260901123028 | 80 | 205 | 0.0 | 0.9 | 0.00 | 0.00 | 0.00 | 78 | 1017.5 |
| 20260901122508 | 79 | 205 | 0.0 | 0.9 | 0.00 | 0.00 | 0.00 | 78 | 1017.4 |
| 20260901122007 | 79 | 206 | 0.0 | 0.0 | 0.00 | 0.00 | 0.00 | 78 | 1017.3 |
| 20260901121520 | 79 | 206 | 0.0 | 0.0 | 0.00 | 0.00 | 0.00 | 78 | 1017.3 |
| 20260901121013 | 79 | 206 | 0.0 | 0.0 | 0.00 | 0.00 | 0.00 | 77 | 1017.2 |
| 20260901120508 | 80 | 206 | 0.0 | 0.0 | 0.00 | 0.00 | 0.00 | 77 | 1017.1 |
| 20260901120024 | 80 | 206 | 0.0 | 0.0 | 0.00 | 0.00 | 0.00 | 77 | 1017.0 |
| 20260901115510 | 80 | 206 | 0.0 | 0.0 | 0.00 | 0.00 | 0.00 | 77 | 1017.0 |
| 20260901115003 | 80 | 206 | 0.0 | 0.0 | 0.00 | 0.00 | 0.00 | 76 | 1017.0 |
| 20260901114505 | 80 | 206 | 0.0 | 0.0 | 0.00 | 0.00 | 0.00 | 76 | 1016.9 |
| 20260901114003 | 80 | 206 | 0.0 | 0.0 | 0.00 | 0.00 | 0.00 | 76 | 1017.0 |
| 20260901113504 | 80 | 206 | 0.0 | 0.0 | 0.00 | 0.00 | 0.00 | 76 | 1016.9 |
| 20260901113008 | 80 | 206 | 0.0 | 0.9 | 0.00 | 0.00 | 0.00 | 76 | 1016.8 |
| 20260901112503 | 80 | 206 | 0.0 | 0.9 | 0.00 | 0.00 | 0.00 | 76 | 1016.8 |
| 20260901112007 | 80 | 206 | 0.0 | 0.9 | 0.00 | 0.00 | 0.00 | 75 | 1016.8 |
| 20260901111517 | 80 | 206 | 0.0 | 0.9 | 0.00 | 0.00 | 0.00 | 75 | 1016.7 |
| 20260901111007 | 81 | 206 | 0.0 | 0.9 | 0.00 | 0.00 | 0.00 | 75 | 1016.8 |
| 20260901110508 | 81 | 206 | 0.0 | 0.0 | 0.00 | 0.00 | 0.00 | 75 | 1016.7 |
| 20260901110022 | 81 | 206 | 0.0 | 0.9 | 0.00 | 0.00 | 0.00 | 74 | 1016.7 |
| 20260901105513 | 81 | 206 | 0.0 | 0.9 | 0.00 | 0.00 | 0.00 | 74 | 1016.7 |
| 20260901105010 | 81 | 206 | 0.0 | 0.9 | 0.00 | 0.00 | 0.00 | 73 | 1016.6 |
| 20260901104528 | 81 | 206 | 0.0 | 0.0 | 0.00 | 0.00 | 0.00 | 73 | 1016.6 |
| 20260901104004 | 81 | 206 | 0.0 | 0.0 | 0.00 | 0.00 | 0.00 | 73 | 1016.7 |
| 20260901103503 | 81 | 206 | 0.0 | 0.0 | 0.00 | 0.00 | 0.00 | 72 | 1016.7 |
| 20260901103005 | 82 | 206 | 0.0 | 0.9 | 0.00 | 0.00 | 0.00 | 72 | 1016.7 |
| 20260901102504 | 82 | 206 | 0.0 | 0.9 | 0.00 | 0.00 | 0.00 | 71 | 1016.8 |
| 20260901102003 | 82 | 206 | 0.0 | 0.0 | 0.00 | 0.00 | 0.00 | 71 | 1016.8 |
| 20260901101513 | 82 | 206 | 0.0 | 0.9 | 0.00 | 0.00 | 0.00 | 71 | 1016.8 |
| 20260901101007 | 82 | 206 | 0.0 | 2.6 | 0.00 | 0.00 | 0.00 | 71 | 1016.7 |
| 20260901100507 | 82 | 206 | 0.0 | 2.6 | 0.00 | 0.00 | 0.00 | 71 | 1016.8 |
| 20260901100018 | 82 | 212 | 0.0 | 2.6 | 0.00 | 0.00 | 0.00 | 71 | 1016.8 |
| 20260901095508 | 82 | 188 | 0.0 | 2.6 | 0.00 | 0.00 | 0.00 | 71 | 1016.9 |
| 20260901095008 | 82 | 188 | 0.0 | 2.6 | 0.00 | 0.00 | 0.00 | 70 | 1017.0 |
| 20260901094524 | 82 | 174 | 0.0 | 0.9 | 0.00 | 0.00 | 0.00 | 70 | 1016.9 |
| 20260901094014 | 83 | 172 | 0.0 | 0.9 | 0.00 | 0.00 | 0.00 | 70 | 1017.0 |
| 20260901093513 | 83 | 171 | 0.0 | 0.9 | 0.00 | 0.00 | 0.00 | 70 | 1017.0 |
| 20260901093028 | 83 | 171 | 0.0 | 0.9 | 0.00 | 0.00 | 0.00 | 69 | 1017.0 |
| 20260901092503 | 83 | 166 | 0.0 | 0.9 | 0.00 | 0.00 | 0.00 | 69 | 1017.0 |
| 20260901092003 | 83 | 165 | 0.0 | 4.3 | 0.00 | 0.00 | 0.00 | 69 | 1017.0 |
| 20260901091507 | 83 | 165 | 0.0 | 4.3 | 0.00 | 0.00 | 0.00 | 69 | 1017.0 |
| 20260901091003 | 83 | 159 | 0.0 | 3.5 | 0.00 | 0.00 | 0.00 | 69 | 1016.9 |
| 20260901090504 | 83 | 159 | 0.0 | 4.3 | 0.00 | 0.00 | 0.00 | 69 | 1016.8 |
| 20260901090017 | 83 | 159 | 0.0 | 4.3 | 0.00 | 0.00 | 0.00 | 69 | 1016.8 |
| 20260901085506 | 84 | 159 | 0.0 | 4.3 | 0.00 | 0.00 | 0.00 | 68 | 1016.7 |
| 20260901085008 | 84 | 157 | 0.0 | 4.3 | 0.00 | 0.00 | 0.00 | 68 | 1016.7 |
| 20260901084518 | 84 | 166 | 0.0 | 3.5 | 0.00 | 0.00 | 0.00 | 68 | 1016.7 |
| 20260901084010 | 84 | 167 | 0.0 | 3.5 | 0.00 | 0.00 | 0.00 | 68 | 1016.7 |
| 20260901083510 | 84 | 167 | 0.0 | 7.0 | 0.00 | 0.00 | 0.00 | 68 | 1016.7 |
| 20260901083028 | 84 | 169 | 0.9 | 7.0 | 0.00 | 0.00 | 0.00 | 67 | 1016.6 |
| 20260901082512 | 84 | 193 | 0.0 | 2.6 | 0.00 | 0.00 | 0.00 | 67 | 1016.6 |
| 20260901082016 | 84 | 195 | 0.0 | 0.9 | 0.00 | 0.00 | 0.00 | 66 | 1016.6 |
| 20260901081528 | 84 | 196 | 0.0 | 0.9 | 0.00 | 0.00 | 0.00 | 65 | 1016.6 |
| 20260901081004 | 85 | 196 | 0.0 | 4.3 | 0.00 | 0.00 | 0.00 | 64 | 1016.6 |
| 20260901080504 | 85 | 196 | 0.0 | 4.3 | 0.00 | 0.00 | 0.00 | 64 | 1016.5 |
| 20260901080010 | 85 | 199 | 0.0 | 3.5 | 0.00 | 0.00 | 0.00 | 63 | 1016.5 |
| 20260901075505 | 85 | 214 | 0.0 | 3.5 | 0.00 | 0.00 | 0.00 | 63 | 1016.5 |
| 20260901075010 | 85 | 219 | 0.0 | 3.5 | 0.00 | 0.00 | 0.00 | 63 | 1016.5 |
| 20260901074516 | 85 | 211 | 0.0 | 5.2 | 0.00 | 0.00 | 0.00 | 64 | 1016.5 |
| 20260901074012 | 85 | 193 | 0.0 | 5.2 | 0.00 | 0.00 | 0.00 | 63 | 1016.4 |
| 20260901073508 | 85 | 205 | 0.0 | 5.2 | 0.00 | 0.00 | 0.00 | 63 | 1016.5 |
| 20260901073035 | 86 | 198 | 0.9 | 5.2 | 0.00 | 0.00 | 0.00 | 63 | 1016.5 |
| 20260901072513 | 86 | 153 | 0.9 | 5.2 | 0.00 | 0.00 | 0.00 | 62 | 1016.5 |
| 20260901072012 | 86 | 181 | 1.7 | 6.1 | 0.00 | 0.00 | 0.00 | 62 | 1016.5 |
| 20260901071528 | 86 | 155 | 0.9 | 6.1 | 0.00 | 0.00 | 0.00 | 62 | 1016.5 |
| 20260901071014 | 86 | 155 | 0.0 | 6.1 | 0.00 | 0.00 | 0.00 | 62 | 1016.5 |
| 20260901070514 | 86 | 184 | 0.9 | 7.0 | 0.00 | 0.00 | 0.00 | 62 | 1016.4 |
| 20260901070032 | 86 | 161 | 1.7 | 7.0 | 0.00 | 0.00 | 0.00 | 61 | 1016.4 |
| 20260901065506 | 86 | 165 | 0.0 | 4.3 | 0.00 | 0.00 | 0.00 | 62 | 1016.5 |
| 20260901065006 | 86 | 167 | 0.0 | 6.1 | 0.00 | 0.00 | 0.00 | 61 | 1016.5 |
| 20260901064515 | 86 | 167 | 0.0 | 6.1 | 0.00 | 0.00 | 0.00 | 60 | 1016.4 |
| 20260901064006 | 86 | 158 | 0.0 | 2.6 | 0.00 | 0.00 | 0.00 | 60 | 1016.4 |
| 20260901063509 | 86 | 158 | 0.0 | 4.3 | 0.00 | 0.00 | 0.00 | 60 | 1016.4 |
| 20260901063022 | 86 | 157 | 0.0 | 4.3 | 0.00 | 0.00 | 0.00 | 60 | 1016.4 |
| 20260901062510 | 86 | 159 | 0.0 | 4.3 | 0.00 | 0.00 | 0.00 | 59 | 1016.3 |
| 20260901062013 | 86 | 160 | 0.0 | 6.1 | 0.00 | 0.00 | 0.00 | 59 | 1016.3 |
| 20260901061524 | 87 | 157 | 0.0 | 6.1 | 0.00 | 0.00 | 0.00 | 58 | 1016.2 |
| 20260901061012 | 87 | 163 | 0.0 | 7.0 | 0.00 | 0.00 | 0.00 | 58 | 1016.2 |
| 20260901060513 | 87 | 141 | 0.9 | 7.0 | 0.00 | 0.00 | 0.00 | 58 | 1016.1 |
| 20260901060038 | 87 | 135 | 0.9 | 7.0 | 0.00 | 0.00 | 0.00 | 58 | 1016.1 |
| 20260901055513 | 87 | 138 | 1.7 | 7.0 | 0.00 | 0.00 | 0.00 | 57 | 1016.0 |
| 20260901055020 | 87 | 137 | 1.7 | 7.0 | 0.00 | 0.00 | 0.00 | 57 | 1016.0 |
| 20260901054530 | 87 | 124 | 0.9 | 8.7 | 0.00 | 0.00 | 0.00 | 57 | 1016.0 |
| 20260901054008 | 88 | 129 | 1.7 | 8.7 | 0.00 | 0.00 | 0.00 | 57 | 1015.9 |
| 20260901053508 | 88 | 128 | 1.7 | 7.8 | 0.00 | 0.00 | 0.00 | 56 | 1015.9 |
| 20260901053015 | 88 | 134 | 3.5 | 8.7 | 0.00 | 0.00 | 0.00 | 56 | 1015.9 |
| 20260901052509 | 88 | 132 | 2.6 | 8.7 | 0.00 | 0.00 | 0.00 | 56 | 1015.8 |
| 20260901052011 | 88 | 146 | 0.9 | 8.7 | 0.00 | 0.00 | 0.00 | 55 | 1015.8 |
| 20260901051522 | 88 | 121 | 1.7 | 10.4 | 0.00 | 0.00 | 0.00 | 55 | 1015.8 |
| 20260901051010 | 88 | 102 | 2.6 | 10.4 | 0.00 | 0.00 | 0.00 | 55 | 1015.8 |
| 20260901050512 | 88 | 154 | 1.7 | 8.7 | 0.00 | 0.00 | 0.00 | 55 | 1015.7 |
| 20260901050027 | 88 | 154 | 0.9 | 7.0 | 0.00 | 0.00 | 0.00 | 55 | 1015.6 |
| 20260901045513 | 88 | 154 | 0.9 | 7.0 | 0.00 | 0.00 | 0.00 | 55 | 1015.6 |
| 20260901045014 | 88 | 136 | 0.9 | 4.3 | 0.00 | 0.00 | 0.00 | 54 | 1015.6 |
| 20260901044528 | 88 | 141 | 0.0 | 3.5 | 0.00 | 0.00 | 0.00 | 54 | 1015.6 |
| 20260901044019 | 88 | 139 | 0.0 | 3.5 | 0.00 | 0.00 | 0.00 | 54 | 1015.5 |
| 20260901043517 | 88 | 131 | 0.0 | 2.6 | 0.00 | 0.00 | 0.00 | 54 | 1015.5 |
| 20260901043032 | 88 | 130 | 0.0 | 2.6 | 0.00 | 0.00 | 0.00 | 54 | 1015.5 |
| 20260901042506 | 88 | 128 | 0.0 | 0.0 | 0.00 | 0.00 | 0.00 | 54 | 1015.5 |
| 20260901042006 | 88 | 128 | 0.0 | 2.6 | 0.00 | 0.00 | 0.00 | 54 | 1015.4 |
| 20260901041517 | 88 | 128 | 0.0 | 3.5 | 0.00 | 0.00 | 0.00 | 54 | 1015.5 |
| 20260901041009 | 88 | 128 | 0.0 | 4.3 | 0.00 | 0.00 | 0.00 | 53 | 1015.5 |
| 20260901040511 | 89 | 128 | 0.0 | 4.3 | 0.00 | 0.00 | 0.00 | 53 | 1015.4 |
| 20260901040024 | 89 | 129 | 0.0 | 4.3 | 0.00 | 0.00 | 0.00 | 53 | 1015.4 |
| 20260901035512 | 89 | 149 | 0.0 | 4.3 | 0.00 | 0.00 | 0.00 | 52 | 1015.4 |
| 20260901035011 | 88 | 150 | 0.9 | 2.6 | 0.00 | 0.00 | 0.00 | 52 | 1015.4 |
| 20260901034532 | 88 | 150 | 0.0 | 2.6 | 0.00 | 0.00 | 0.00 | 52 | 1015.3 |
| 20260901034004 | 89 | 150 | 0.0 | 2.6 | 0.00 | 0.00 | 0.00 | 53 | 1015.3 |
| 20260901033508 | 89 | 150 | 0.0 | 2.6 | 0.00 | 0.00 | 0.00 | 53 | 1015.4 |
| 20260901033013 | 88 | 150 | 0.0 | 2.6 | 0.00 | 0.00 | 0.00 | 54 | 1015.3 |
| 20260901032504 | 88 | 152 | 0.0 | 0.9 | 0.00 | 0.00 | 0.00 | 54 | 1015.3 |
| 20260901032004 | 88 | 152 | 0.0 | 0.9 | 0.00 | 0.00 | 0.00 | 55 | 1015.3 |
| 20260901031512 | 88 | 152 | 0.0 | 0.9 | 0.00 | 0.00 | 0.00 | 55 | 1015.3 |
| 20260901031008 | 88 | 152 | 0.0 | 0.9 | 0.00 | 0.00 | 0.00 | 54 | 1015.3 |
| 20260901030509 | 88 | 152 | 0.0 | 0.9 | 0.00 | 0.00 | 0.00 | 54 | 1015.2 |
| 20260901030018 | 88 | 152 | 0.0 | 0.9 | 0.00 | 0.00 | 0.00 | 53 | 1015.2 |
| 20260901025511 | 89 | 152 | 0.0 | 0.9 | 0.00 | 0.00 | 0.00 | 53 | 1015.1 |
| 20260901025010 | 89 | 152 | 0.0 | 0.9 | 0.00 | 0.00 | 0.00 | 53 | 1015.1 |
| 20260901024525 | 89 | 152 | 0.0 | 0.9 | 0.00 | 0.00 | 0.00 | 53 | 1014.9 |
| 20260901024014 | 89 | 152 | 0.0 | 1.7 | 0.00 | 0.00 | 0.00 | 53 | 1014.8 |
| 20260901023515 | 89 | 152 | 0.0 | 1.7 | 0.00 | 0.00 | 0.00 | 56 | 1014.7 |
| 20260901023030 | 90 | 152 | 0.0 | 0.9 | 0.00 | 0.00 | 0.00 | 56 | 1014.7 |
| 20260901022504 | 90 | 152 | 0.0 | 0.0 | 0.00 | 0.00 | 0.00 | 54 | 1014.6 |
| 20260901022006 | 90 | 152 | 0.0 | 0.0 | 0.00 | 0.00 | 0.00 | 53 | 1014.5 |
| 20260901021521 | 91 | 152 | 0.0 | 0.0 | 0.00 | 0.00 | 0.00 | 53 | 1014.5 |
| 20260901021006 | 91 | 152 | 0.0 | 0.0 | 0.00 | 0.00 | 0.00 | 52 | 1014.4 |
| 20260901020507 | 91 | 152 | 0.0 | 0.9 | 0.00 | 0.00 | 0.00 | 52 | 1014.4 |
| 20260901020018 | 91 | 152 | 0.0 | 0.9 | 0.00 | 0.00 | 0.00 | 52 | 1014.4 |
| 20260901015507 | 92 | 152 | 0.0 | 0.0 | 0.00 | 0.00 | 0.00 | 51 | 1014.4 |
| 20260901015012 | 92 | 152 | 0.0 | 0.0 | 0.00 | 0.00 | 0.00 | 51 | 1014.4 |
| 20260901014524 | 92 | 152 | 0.0 | 0.9 | 0.00 | 0.00 | 0.00 | 51 | 1014.3 |
| 20260901014012 | 93 | 152 | 0.0 | 0.9 | 0.00 | 0.00 | 0.00 | 51 | 1014.3 |
| 20260901013513 | 93 | 152 | 0.0 | 0.9 | 0.00 | 0.00 | 0.00 | 51 | 1014.4 |
| 20260901013026 | 94 | 152 | 0.0 | 0.9 | 0.00 | 0.00 | 0.00 | 51 | 1014.3 |
| 20260901012511 | 94 | 152 | 0.0 | 0.9 | 0.00 | 0.00 | 0.00 | 51 | 1014.4 |
| 20260901012014 | 94 | 152 | 0.0 | 2.6 | 0.00 | 0.00 | 0.00 | 51 | 1014.3 |
| 20260901011537 | 95 | 152 | 0.0 | 2.6 | 0.00 | 0.00 | 0.00 | 50 | 1014.2 |
| 20260901011005 | 95 | 152 | 0.0 | 1.7 | 0.00 | 0.00 | 0.00 | 49 | 1014.2 |
| 20260901010504 | 95 | 152 | 0.0 | 1.7 | 0.00 | 0.00 | 0.00 | 47 | 1014.2 |
| 20260901010019 | 96 | 153 | 0.0 | 1.7 | 0.00 | 0.00 | 0.00 | 47 | 1014.1 |
| 20260901005507 | 96 | 151 | 0.0 | 2.6 | 0.00 | 0.00 | 0.00 | 46 | 1014.1 |
| 20260901005008 | 96 | 151 | 0.0 | 2.6 | 0.00 | 0.00 | 0.00 | 45 | 1014.1 |
| 20260901004535 | 97 | 149 | 0.0 | 6.1 | 0.00 | 0.00 | 0.00 | 43 | 1014.0 |
| 20260901004008 | 97 | 138 | 0.9 | 6.1 | 0.00 | 0.00 | 0.00 | 42 | 1014.0 |
| 20260901003511 | 97 | 173 | 0.0 | 6.1 | 0.00 | 0.00 | 0.00 | 40 | 1014.0 |
| 20260901003024 | 98 | 140 | 0.9 | 7.8 | 0.00 | 0.00 | 0.00 | 40 | 1014.0 |
| 20260901002514 | 98 | 155 | 0.9 | 7.8 | 0.00 | 0.00 | 0.00 | 39 | 1014.0 |
| 20260901002018 | 98 | 196 | 0.9 | 7.8 | 0.00 | 0.00 | 0.00 | 39 | 1014.0 |
| 20260901001529 | 98 | 123 | 0.9 | 7.0 | 0.00 | 0.00 | 0.00 | 40 | 1014.0 |
| 20260901001013 | 98 | 154 | 2.6 | 7.0 | 0.00 | 0.00 | 0.00 | 40 | 1014.0 |
| 20260901000512 | 98 | 120 | 1.7 | 8.7 | 0.00 | 0.00 | 0.00 | 40 | 1014.0 |
| 20260901000034 | 98 | 128 | 3.5 | 8.7 | 0.00 | 0.00 | 0.00 | 39 | 1014.0 |
| 20260831235504 | 99 | 121 | 5.2 | 8.7 | 0.00 | 0.00 | 0.00 | 38 | 1014.0 |
| 20260831235006 | 99 | 134 | 2.6 | 7.8 | 0.00 | 0.00 | 0.00 | 38 | 1014.0 |
| 20260831234516 | 99 | 157 | 1.7 | 10.4 | 0.00 | 0.00 | 0.00 | 38 | 1014.2 |
| 20260831234010 | 99 | 168 | 0.9 | 10.4 | 0.00 | 0.00 | 0.00 | 38 | 1014.1 |
| 20260831233507 | 99 | 103 | 1.7 | 7.0 | 0.00 | 0.00 | 0.00 | 38 | 1014.1 |
| 20260831233036 | 100 | 132 | 0.9 | 7.8 | 0.00 | 0.00 | 0.00 | 38 | 1014.0 |
| 20260831232514 | 100 | 123 | 2.6 | 9.6 | 0.00 | 0.00 | 0.00 | 36 | 1014.0 |
| 20260831232012 | 102 | 128 | 6.1 | 9.6 | 0.00 | 0.00 | 0.00 | 35 | 1014.0 |
| 20260831231535 | 102 | 164 | 0.9 | 7.0 | 0.00 | 0.00 | 0.00 | 34 | 1013.9 |
| 20260831231014 | 102 | 144 | 0.0 | 4.3 | 0.00 | 0.00 | 0.00 | 34 | 1013.9 |
| 20260831230514 | 102 | 202 | 0.9 | 4.3 | 0.00 | 0.00 | 0.00 | 34 | 1013.9 |
| 20260831230027 | 102 | 112 | 0.0 | 3.5 | 0.00 | 0.00 | 0.00 | 35 | 1014.0 |
| 20260831225514 | 102 | 182 | 0.0 | 8.7 | 0.00 | 0.00 | 0.00 | 35 | 1014.0 |
| 20260831225018 | 101 | 184 | 0.0 | 8.7 | 0.00 | 0.00 | 0.00 | 35 | 1014.0 |
| 20260831224532 | 101 | 187 | 0.0 | 6.1 | 0.00 | 0.00 | 0.00 | 36 | 1014.0 |
| 20260831224006 | 101 | 171 | 1.7 | 6.1 | 0.00 | 0.00 | 0.00 | 35 | 1014.1 |
| 20260831223507 | 101 | 102 | 1.7 | 7.0 | 0.00 | 0.00 | 0.00 | 34 | 1014.2 |
| 20260831223018 | 101 | 158 | 0.9 | 7.0 | 0.00 | 0.00 | 0.00 | 34 | 1014.2 |
| 20260831222508 | 101 | 118 | 3.5 | 8.7 | 0.00 | 0.00 | 0.00 | 34 | 1014.3 |
| 20260831222012 | 102 | 118 | 0.0 | 9.6 | 0.00 | 0.00 | 0.00 | 33 | 1014.3 |
| 20260831221532 | 103 | 118 | 5.2 | 9.6 | 0.00 | 0.00 | 0.00 | 33 | 1014.3 |
| 20260831221011 | 104 | 143 | 0.9 | 8.7 | 0.00 | 0.00 | 0.00 | 33 | 1014.3 |
| 20260831220513 | 103 | 167 | 0.0 | 7.0 | 0.00 | 0.00 | 0.00 | 34 | 1014.3 |
| 20260831220026 | 103 | 163 | 0.9 | 7.0 | 0.00 | 0.00 | 0.00 | 33 | 1014.4 |
| 20260831215514 | 103 | 163 | 0.9 | 7.0 | 0.00 | 0.00 | 0.00 | 33 | 1014.4 |
| 20260831215015 | 103 | 277 | 0.0 | 7.0 | 0.00 | 0.00 | 0.00 | 33 | 1014.5 |
| 20260831214539 | 103 | 146 | 1.7 | 7.0 | 0.00 | 0.00 | 0.00 | 33 | 1014.7 |
| 20260831214015 | 103 | 169 | 1.7 | 7.0 | 0.00 | 0.00 | 0.00 | 33 | 1014.6 |
| 20260831213516 | 103 | 173 | 1.7 | 7.8 | 0.00 | 0.00 | 0.00 | 34 | 1014.7 |
| 20260831213030 | 103 | 194 | 1.7 | 7.8 | 0.00 | 0.00 | 0.00 | 34 | 1014.7 |
| 20260831212507 | 104 | 144 | 0.0 | 6.1 | 0.00 | 0.00 | 0.00 | 33 | 1014.8 |
| 20260831212008 | 104 | 199 | 0.0 | 6.1 | 0.00 | 0.00 | 0.00 | 34 | 1014.8 |
| 20260831211520 | 103 | 197 | 1.7 | 6.1 | 0.00 | 0.00 | 0.00 | 34 | 1014.9 |
| 20260831211009 | 103 | 232 | 0.0 | 6.1 | 0.00 | 0.00 | 0.00 | 35 | 1014.9 |
| 20260831210510 | 102 | 205 | 0.0 | 7.8 | 0.00 | 0.00 | 0.00 | 35 | 1014.9 |
| 20260831210023 | 101 | 238 | 2.6 | 7.8 | 0.00 | 0.00 | 0.00 | 35 | 1015.0 |
| 20260831205512 | 101 | 146 | 1.7 | 7.8 | 0.00 | 0.00 | 0.00 | 35 | 1015.1 |
| 20260831205014 | 102 | 148 | 1.7 | 7.8 | 0.00 | 0.00 | 0.00 | 34 | 1015.2 |
| 20260831204529 | 102 | 144 | 0.0 | 8.7 | 0.00 | 0.00 | 0.00 | 34 | 1015.2 |
| 20260831204014 | 102 | 160 | 0.0 | 9.6 | 0.00 | 0.00 | 0.00 | 34 | 1015.3 |
| 20260831203516 | 102 | 187 | 0.9 | 9.6 | 0.00 | 0.00 | 0.00 | 34 | 1015.4 |
| 20260831203029 | 101 | 126 | 1.7 | 6.1 | 0.00 | 0.00 | 0.00 | 35 | 1015.4 |
| 20260831202515 | 101 | 190 | 1.7 | 7.8 | 0.00 | 0.00 | 0.00 | 36 | 1015.5 |
| 20260831202015 | 101 | 137 | 2.6 | 7.8 | 0.00 | 0.00 | 0.00 | 36 | 1015.6 |
| 20260831201533 | 102 | 139 | 2.6 | 7.8 | 0.00 | 0.00 | 0.00 | 36 | 1015.7 |
| 20260831201008 | 102 | 155 | 2.6 | 7.8 | 0.00 | 0.00 | 0.00 | 36 | 1015.8 |
| 20260831200509 | 102 | 148 | 0.0 | 7.0 | 0.00 | 0.00 | 0.00 | 35 | 1015.9 |
| 20260831200023 | 102 | 164 | 0.9 | 9.6 | 0.00 | 0.00 | 0.00 | 35 | 1016.0 |
| 20260831195510 | 101 | 140 | 2.6 | 9.6 | 0.00 | 0.00 | 0.00 | 35 | 1016.0 |
| 20260831195011 | 101 | 202 | 1.7 | 8.7 | 0.00 | 0.00 | 0.00 | 36 | 1016.1 |
| 20260831194526 | 102 | 132 | 2.6 | 7.8 | 0.00 | 0.00 | 0.00 | 37 | 1016.1 |
| 20260831194015 | 102 | 161 | 1.7 | 7.0 | 0.00 | 0.00 | 0.00 | 37 | 1016.1 |
| 20260831193514 | 102 | 144 | 2.6 | 7.0 | 0.00 | 0.00 | 0.00 | 38 | 1016.2 |
| 20260831193036 | 102 | 168 | 0.0 | 7.0 | 0.00 | 0.00 | 0.00 | 39 | 1016.3 |
| 20260831192513 | 102 | 162 | 0.9 | 7.0 | 0.00 | 0.00 | 0.00 | 39 | 1016.3 |
| 20260831192004 | 101 | 189 | 1.7 | 8.7 | 0.00 | 0.00 | 0.00 | 39 | 1016.4 |
| 20260831191514 | 101 | 150 | 0.9 | 8.7 | 0.00 | 0.00 | 0.00 | 40 | 1016.4 |
| 20260831191005 | 101 | 189 | 0.0 | 8.7 | 0.00 | 0.00 | 0.00 | 40 | 1016.4 |
| 20260831190506 | 101 | 159 | 2.6 | 6.1 | 0.00 | 0.00 | 0.00 | 40 | 1016.5 |
| 20260831190018 | 101 | 190 | 0.0 | 9.6 | 0.00 | 0.00 | 0.00 | 40 | 1016.5 |
| 20260831185510 | 101 | 152 | 1.7 | 9.6 | 0.00 | 0.00 | 0.00 | 40 | 1016.6 |
| 20260831185011 | 101 | 139 | 0.9 | 9.6 | 0.00 | 0.00 | 0.00 | 40 | 1016.5 |
| 20260831184525 | 101 | 215 | 0.0 | 7.8 | 0.00 | 0.00 | 0.00 | 40 | 1016.6 |
| 20260831184003 | 101 | 148 | 3.5 | 7.8 | 0.00 | 0.00 | 0.00 | 40 | 1016.6 |
| 20260831183503 | 100 | 176 | 1.7 | 6.1 | 0.00 | 0.00 | 0.00 | 40 | 1016.7 |
| 20260831183004 | 100 | 185 | 2.6 | 9.6 | 0.00 | 0.00 | 0.00 | 42 | 1016.7 |
| 20260831182507 | 100 | 190 | 0.0 | 9.6 | 0.00 | 0.00 | 0.00 | 41 | 1016.8 |
| 20260831182006 | 100 | 164 | 1.7 | 8.7 | 0.00 | 0.00 | 0.00 | 42 | 1017.0 |
| 20260831181510 | 100 | 126 | 3.5 | 8.7 | 0.00 | 0.00 | 0.00 | 42 | 1017.1 |
| 20260831181004 | 100 | 167 | 0.9 | 6.1 | 0.00 | 0.00 | 0.00 | 44 | 1017.1 |
| 20260831180504 | 99 | 165 | 1.7 | 6.1 | 0.00 | 0.00 | 0.00 | 44 | 1017.1 |
| 20260831180019 | 99 | 180 | 0.9 | 7.8 | 0.00 | 0.00 | 0.00 | 45 | 1017.2 |
| 20260831175507 | 99 | 142 | 0.9 | 7.8 | 0.00 | 0.00 | 0.00 | 44 | 1017.2 |
| 20260831175016 | 99 | 170 | 2.6 | 7.0 | 0.00 | 0.00 | 0.00 | 45 | 1017.3 |
| 20260831174521 | 98 | 160 | 1.7 | 7.8 | 0.00 | 0.00 | 0.00 | 45 | 1017.5 |
| 20260831174010 | 98 | 156 | 4.3 | 7.8 | 0.00 | 0.00 | 0.00 | 46 | 1017.6 |
| 20260831173512 | 98 | 186 | 1.7 | 7.8 | 0.00 | 0.00 | 0.00 | 46 | 1017.6 |
| 20260831173025 | 98 | 115 | 1.7 | 7.0 | 0.00 | 0.00 | 0.00 | 46 | 1017.7 |
| 20260831172502 | 98 | 171 | 0.9 | 7.0 | 0.00 | 0.00 | 0.00 | 46 | 1017.7 |
| 20260831172003 | 98 | 153 | 2.6 | 7.0 | 0.00 | 0.00 | 0.00 | 46 | 1017.8 |
| 20260831171512 | 97 | 223 | 0.9 | 7.0 | 0.00 | 0.00 | 0.00 | 48 | 1017.9 |
| 20260831171003 | 97 | 150 | 0.9 | 7.0 | 0.00 | 0.00 | 0.00 | 48 | 1018.0 |
| 20260831170503 | 97 | 144 | 1.7 | 6.1 | 0.00 | 0.00 | 0.00 | 48 | 1018.0 |
| 20260831170023 | 97 | 165 | 0.9 | 7.8 | 0.00 | 0.00 | 0.00 | 49 | 1018.0 |
| 20260831165506 | 96 | 157 | 0.9 | 7.8 | 0.00 | 0.00 | 0.00 | 49 | 1018.0 |
| 20260831165003 | 97 | 126 | 1.7 | 7.8 | 0.00 | 0.00 | 0.00 | 50 | 1018.1 |
| 20260831164520 | 97 | 190 | 0.9 | 7.8 | 0.00 | 0.00 | 0.00 | 49 | 1018.1 |
| 20260831164012 | 97 | 185 | 0.9 | 7.8 | 0.00 | 0.00 | 0.00 | 50 | 1018.2 |
| 20260831163508 | 98 | 138 | 1.7 | 7.0 | 0.00 | 0.00 | 0.00 | 48 | 1018.2 |
| 20260831163023 | 98 | 188 | 0.0 | 6.1 | 0.00 | 0.00 | 0.00 | 47 | 1018.2 |
| 20260831162510 | 98 | 154 | 0.0 | 6.1 | 0.00 | 0.00 | 0.00 | 50 | 1018.3 |
| 20260831162011 | 98 | 188 | 0.0 | 3.5 | 0.00 | 0.00 | 0.00 | 46 | 1018.4 |
| 20260831161531 | 97 | 197 | 0.0 | 6.1 | 0.00 | 0.00 | 0.00 | 46 | 1018.3 |
| 20260831161002 | 97 | 190 | 0.9 | 6.1 | 0.00 | 0.00 | 0.00 | 47 | 1018.3 |
| 20260831160504 | 97 | 174 | 0.0 | 6.1 | 0.00 | 0.00 | 0.00 | 47 | 1018.3 |
| 20260831160008 | 96 | 236 | 0.0 | 6.1 | 0.00 | 0.00 | 0.00 | 46 | 1018.3 |
| 20260831155513 | 96 | 215 | 0.0 | 4.3 | 0.00 | 0.00 | 0.00 | 47 | 1018.3 |
| 20260831155004 | 96 | 183 | 0.0 | 3.5 | 0.00 | 0.00 | 0.00 | 47 | 1018.2 |
| 20260831154558 | 96 | 278 | 0.0 | 6.1 | 0.00 | 0.00 | 0.00 | 47 | 1018.4 |
| 20260831154005 | 95 | 255 | 0.0 | 6.1 | 0.00 | 0.00 | 0.00 | 50 | 1018.3 |
| 20260831153508 | 95 | 253 | 0.9 | 6.1 | 0.00 | 0.00 | 0.00 | 48 | 1018.3 |
| 20260831153019 | 95 | 207 | 0.0 | 6.1 | 0.00 | 0.00 | 0.00 | 49 | 1018.3 |
| 20260831152508 | 94 | 272 | 0.0 | 6.1 | 0.00 | 0.00 | 0.00 | 53 | 1018.3 |
| 20260831152013 | 94 | 217 | 0.0 | 5.2 | 0.00 | 0.00 | 0.00 | 52 | 1018.3 |
| 20260831151524 | 93 | 235 | 0.0 | 5.2 | 0.00 | 0.00 | 0.00 | 51 | 1018.3 |
| 20260831151009 | 93 | 195 | 0.9 | 5.2 | 0.00 | 0.00 | 0.00 | 52 | 1018.3 |
| 20260831150512 | 93 | 232 | 0.0 | 6.1 | 0.00 | 0.00 | 0.00 | 53 | 1018.2 |
| 20260831150027 | 93 | 242 | 0.0 | 6.1 | 0.00 | 0.00 | 0.00 | 56 | 1018.2 |
| 20260831145503 | 92 | 225 | 0.0 | 4.3 | 0.00 | 0.00 | 0.00 | 56 | 1018.1 |
| 20260831145003 | 92 | 240 | 0.0 | 4.3 | 0.00 | 0.00 | 0.00 | 58 | 1018.1 |
| 20260831144507 | 92 | 241 | 0.0 | 4.3 | 0.00 | 0.00 | 0.00 | 58 | 1018.1 |
| 20260831144006 | 92 | 210 | 0.0 | 2.6 | 0.00 | 0.00 | 0.00 | 58 | 1018.1 |
| 20260831143503 | 91 | 240 | 0.0 | 6.1 | 0.00 | 0.00 | 0.00 | 60 | 1018.1 |
| 20260831143011 | 91 | 241 | 0.0 | 6.1 | 0.00 | 0.00 | 0.00 | 59 | 1018.1 |
| 20260831142505 | 91 | 220 | 0.0 | 0.9 | 0.00 | 0.00 | 0.00 | 61 | 1018.0 |
| 20260831142011 | 90 | 220 | 0.0 | 0.9 | 0.00 | 0.00 | 0.00 | 62 | 1017.9 |
| 20260831141517 | 90 | 220 | 0.0 | 2.6 | 0.00 | 0.00 | 0.00 | 62 | 1017.9 |